"Pseudo-MPEC" for C3TJ9C1

Created 2023 Sep 20 2:22:08 UT using Find_Orb

Click here for an explanation of pseudo-MPECs

 
 Astrometry: 
     C3TJ9C1*1C2023 09 19.32211701 32 51.169+32 17 39.19   ~9J8b 20.22GVNEOCP703
     C3TJ9C1 1C2023 09 19.32759601 32 44.192+32 15 39.82   ~9J8b 19.04GVNEOCP703
     C3TJ9C1 1C2023 09 19.33306801 32 37.079+32 13 41.38   ~9J8b 19.43GVNEOCP703
     C3TJ9C1 1C2023 09 19.33860901 32 30.044+32 11 40.74   ~9J8b 19.03GVNEOCP703
     C3TJ9C1 mC2023 09 19.45284501 30 04.374+31 29 47.90   ~9JBM 19.18GVNEOCPI52
     C3TJ9C1 mC2023 09 19.45301401 30 04.151+31 29 44.27   ~9JBM 18.88GVNEOCPI52
     C3TJ9C1 mC2023 09 19.45318401 30 03.956+31 29 40.38   ~9JBM 18.94GVNEOCPI52
     C3TJ9C1 mC2023 09 19.45335401 30 03.726+31 29 36.46   ~9JBM 19.07GVNEOCPI52
     C3TJ9C1 mC2023 09 19.48505501 29 24.479+31 17 46.03   ~9JC7 19.62GVNEOCPI52
     C3TJ9C1 mC2023 09 19.48978901 29 18.658+31 15 59.58   ~9JC7 19.54GVNEOCPI52
     C3TJ9C1 mC2023 09 19.48995901 29 18.449+31 15 55.58   ~9JC7 19.22GVNEOCPI52
     C3TJ9C1 mC2023 09 19.49467301 29 12.710+31 14 09.78   ~9JC7 19.36GVNEOCPI52
     C3TJ9C1 KC2023 09 19o)*4yA$F`e7eWhkt-EOFcjW)ZTh^N7g2gS(EyB06bdnP/B]TK];;587
     C3TJ9C1 KC2023 09 19GvIiZQ'!c-h=ih1R-s=U#Lw`'xy=mmpj'GK)0XK'!9xfF+:c`=57587
     C3TJ9C1 KC2023 09 19Xp9VI0IJX?:_@eB*wH2R;daoXJ/P:.dm4#A^5:ROZqqnsPF5nPcw587
     C3TJ9C1 KC2023 09 19!LMoL53?-GwNAstrometry_2hkab3@0,q0u?OL)'/Sv\Bc!O1R#JK63
     C3TJ9C1 KC2023 09 19eEGX9gi8yuXNG;T(JaX,]BbfS:iWYhM`5,S#uSoN)MW*he3m'kydK63
     C3TJ9C1 KB2023 09 19.83688401 23 36.25 +29 07 32.7    ~9JKM 19.1 GVNEOCPI93
     C3TJ9C1 KB2023 09 19.83892801 23 34.05 +29 06 49.5    ~9JKM 19.4 GVNEOCPI93
     C3TJ9C1 KB2023 09 19.84096601 23 31.86 +29 06 07.1    ~9JKM 19.6 GVNEOCPI93
     C3TJ9C1 KC2023 09 193;Q@0tRCc%]R17/`D%iMRF2ueyhljAWX7bxG6*DS0(,A?;\=tKE'203
     C3TJ9C1 KC2023 09 19KW6VD)?:XVV1Wl;FK*,G#G]@vbe#3v%I,#,-B?SVPdIF@IKJUr'VL06
     C3TJ9C1 KC2023 09 19/Rqg/^h.JknWhowu%'_NMQy*`Kfq[h#,/3kM!SRGG/5p`dvB#$I)L06
     C3TJ9C1 KC2023 09 19VhpNTgcBkIQ$:YYm1oto?5YoW]tZ@*]b1BN83wDredacted;kl#J104
     C3TJ9C1 KC2023 09 1994QbbF(wZwT=K57UL07pRe/?S0b04Vxe`f^FRl=#[T3-.wD%)c4HL06
     C3TJ9C1 KC2023 09 19ZA2B+Fx)click2qiRq'RIto'/#n=2Ea7N%%P_Fb'+.Z4tQWLH9$L104
     C3TJ9C1 KC2023 09 193M-vQU9cU(ZYXshereY@dN4x#e/OhH.:5[!2fV%O04)8nbpgujB_104
     C3TJ9C1 KC2023 09 19rV7uvG%dI3X9HYKii*y?kga/:+QS#aky7l$!;kYTmlY\[U4]W%JO203
     C3TJ9C1 KB2023 09 19@3CKw)h(=Z`sO+,^xyq[45jILG(QP#dt()K1c9mZMSS^`:792LM!958
     C3TJ9C1 KB2023 09 19PN=3Ym6CAlPi_w$2forQ1iiK)do,lKHexplanationBSeU2YE/Td958
     C3TJ9C1 KB2023 09 196GnY,k]svob@@E+o-Q@UMsA)_T(nbl*c:J`!C6p_Vk^WPSd'MsT:958

Station data:
(104) San Marcello Pistoiese  (N44.064178 E10.803750)  Italy.  Observers P.
   Bacci, M. Maestripieri. Measurers P. Bacci, L. Tesi, G. Fagioli. 0.60-m
   reflector + CCD.
(203) GiaGa Observatory  (N45.541405 E8.995500)  Italy.  Observers S. Foglia,
   G. Galli. Measurer G. Galli. 0.36-m f/5.76 Schmidt-Cassegrain + CCD.
(587) Sormano  (N45.882946 E9.229180)  Italy.  Observers E. Colzani, E. Valli.
    Measurer P. Sicoli. 0.5-m f/6.8 reflector + CCD.
(703) Catalina Sky Survey  (N32.417003 W110.732640)  US/Arizona.  Observer E.
   J. Christensen. 0.68 m Schmidt + 10K CCD.
(958) Observatoire de Dax  (N43.693324 W1.030390)  France.  Observer P.
   Dupouy. 0.32-m Schmidt-Cassegrain.
(I52) Steward Observatory, Mt. Lemmon Station  (N32.442544 W110.788920)
   US/Arizona.  Observers T. A. Pruyne, B. M. Africano, E. J. Christensen, G.
   A. Farneth, D. C. Fuls, A. R. Gibbs, A. D. Grauer, H. Gröller, J. A.
   Johnson, R. A. Kowalski, S. M. Larson, G. J. Leonard, D. Rankin, R. L.
   Seaman, F. C. Shelly, K. W. Wierzchoś. 1.0-m prime focus + CCD.
(I93) St Pardon de Conques  (N44.558708 W0.203000)  France.  Observers F.
   Losse, W. D'Anna. Measurer F. Losse. 0.40-m f/3.7 reflector + CCD.
(K63) G. Pascoli Observatory, Castelvecchio Pascoli  (N44.082407 E10.462000)
   Italy.  Observer R. Bacci. 0.41-m f/3.2 Newtonian reflector + CCD.
(L06) Sormano 2 Observatory, Bellagio Via Lattea  (N45.970100 E9.254030)
   Italy.  Observer G. Ventre. Measurers G. Ventre, P. Sicoli. 0.28-m f/10
   reflector + CCD.

Orbital elements:  C3TJ9C1
   Perihelion 2023 Jun 4.88383 +/- 0.067 TT = 21:12:43 (JD 2460100.38383)
Epoch 2023 Sep 20.0 TT = JDT 2460207.5   Earth MOID: 0.0170   Ve: 0.0067
M 122.07687528 +/- 0.11             (J2000 ecliptic)             AutoNEOCP
n   1.13966804 +/- 0.000417         Peri.   36.47085 +/- 0.08
a   0.90771699 +/- 0.000222         Node   181.85547 +/- 0.0051
e   0.1985039 +/- 0.000184          Incl.    5.54933 +/- 0.007
P   0.86/315.88d           H 25.86  G  0.15   U  7.5
q 0.72753159 +/- 0.000271    Q 1.08790240 +/- 0.000279
From 31 observations 2023 Sept. 19 (16.0 hr); mean residual 0".46
Residuals in arcseconds: 
230919 703  .23-  .98+    230919 I52  .07-  .33+    230919 L06  .16+  .02+    
230919 703  .63+  .19-    230919 587  .32-  .01-    230919 104  .05-  .73-    
230919 703  .32-  .39-    230919 587  .06-  .89+    230919 L06  .44+  .25+    
230919 703  .87+  1.1-    230919 587  .49-  .33+    230919 104  .24-  .65-    
230919 I52  .13-  .05+    230919 K63  .47+  1.2+    230919 104  .23-  .25-    
230919 I52  .28-  .20+    230919 K63  .63-  .69+    230919 203  .02+  .06-    
230919 I52  .05-  .11+    230919 I93  .01+  .27-    230919 958  .93+  .54+    
230919 I52  .28-  .02-    230919 I93  .12-  .65-    230919 958  .74-  .69-    
230919 I52  .01+  .11+    230919 I93  .18-  .35-    230919 958  .50+  .26+    
230919 I52  .27-  .16+    230919 203  .27+  .34-    
230919 I52  .29-  .01-    230919 L06  .21+  .28-    

Ephemerides (geocentric):
Date (UTC) HH   RA             Dec           delta  r     elong  mag " sig PA
---- --------  ------------   ------------  ------ ------ -----  --- --------
2023 09 20 02  01 19 03.816   +27 41 57.34  .02585 1.0254 143.5 19.4 .366 110
2023 09 20 03  01 18 21.902   +27 27 01.12  .02588 1.0255 143.8 19.4 .394 106
2023 09 20 04  01 17 40.278   +27 12 06.30  .02592 1.0256 144.2 19.4 .423 103
2023 09 20 05  01 16 58.942   +26 57 12.96  .02595 1.0257 144.5 19.4 .454 100
2023 09 20 06  01 16 17.890   +26 42 21.15  .02599 1.0258 144.8 19.4 .488  97
2023 09 20 07  01 15 37.122   +26 27 30.92  .02602 1.0259 145.1 19.4 .523  94
2023 09 20 08  01 14 56.634   +26 12 42.32  .02606 1.0260 145.5 19.4 .561  91
2023 09 20 09  01 14 16.424   +25 57 55.41  .02610 1.0261 145.8 19.4 .601  88
2023 09 20 10  01 13 36.491   +25 43 10.24  .02613 1.0262 146.1 19.4 .643  86
2023 09 20 11  01 12 56.833   +25 28 26.86  .02617 1.0263 146.4 19.4 .688  84
2023 09 20 12  01 12 17.446   +25 13 45.33  .02621 1.0264 146.7 19.4 .734  82
2023 09 20 13  01 11 38.330   +24 59 05.68  .02625 1.0265 147.0 19.4 .783  80
2023 09 20 14  01 10 59.482   +24 44 27.98  .02629 1.0266 147.4 19.4 .834  78
2023 09 20 15  01 10 20.900   +24 29 52.27  .02633 1.0267 147.7 19.4 .887  76
2023 09 20 16  01 09 42.581   +24 15 18.60  .02637 1.0268 148.0 19.4 .942  74
2023 09 20 17  01 09 04.524   +24 00 47.01  .02642 1.0269 148.3 19.4 1.00  73
2023 09 20 18  01 08 26.727   +23 46 17.54  .02646 1.0270 148.6 19.4 1.06  71
2023 09 20 19  01 07 49.188   +23 31 50.25  .02650 1.0271 148.9 19.3 1.12  70
2023 09 20 20  01 07 11.904   +23 17 25.18  .02655 1.0272 149.2 19.3 1.18  69
2023 09 20 21  01 06 34.874   +23 03 02.36  .02659 1.0273 149.5 19.3 1.25  67
2023 09 20 22  01 05 58.096   +22 48 41.84  .02664 1.0274 149.9 19.3 1.32  66
2023 09 20 23  01 05 21.567   +22 34 23.67  .02668 1.0275 150.2 19.3 1.39  65
2023 09 21 00  01 04 45.286   +22 20 07.87  .02673 1.0276 150.5 19.3 1.46  64
2023 09 21 01  01 04 09.251   +22 05 54.50  .02678 1.0277 150.8 19.3 1.53  63
2023 09 21 02  01 03 33.459   +21 51 43.58  .02683 1.0278 151.1 19.3 1.61  62
2023 09 21 03  01 02 57.910   +21 37 35.16  .02688 1.0279 151.4 19.3 1.68  61
2023 09 21 04  01 02 22.600   +21 23 29.27  .02693 1.0280 151.7 19.3 1.76  60
2023 09 21 05  01 01 47.528   +21 09 25.94  .02698 1.0281 152.0 19.3 1.84  59
2023 09 21 06  01 01 12.693   +20 55 25.22  .02703 1.0282 152.3 19.3 1.92  59
2023 09 21 07  01 00 38.092   +20 41 27.13  .02708 1.0283 152.6 19.3 2.01  58
2023 09 21 08  01 00 03.723   +20 27 31.70  .02713 1.0284 152.9 19.3 2.09  57
2023 09 21 09  00 59 29.585   +20 13 38.98  .02718 1.0285 153.2 19.3 2.18  57
2023 09 21 10  00 58 55.675   +19 59 48.98  .02723 1.0286 153.5 19.3 2.27  56
2023 09 21 11  00 58 21.992   +19 46 01.75  .02729 1.0287 153.8 19.3 2.36  55
2023 09 21 12  00 57 48.535   +19 32 17.31  .02734 1.0288 154.1 19.3 2.45  55
2023 09 21 13  00 57 15.300   +19 18 35.68  .02740 1.0289 154.4 19.3 2.54  54
2023 09 21 14  00 56 42.288   +19 04 56.90  .02745 1.0290 154.7 19.3 2.64  54
2023 09 21 15  00 56 09.494   +18 51 20.99  .02751 1.0291 155.0 19.3 2.73  53
2023 09 21 16  00 55 36.919   +18 37 47.97  .02757 1.0292 155.3 19.3 2.83  53
2023 09 21 17  00 55 04.560   +18 24 17.88  .02762 1.0293 155.5 19.3 2.93  52
2023 09 21 18  00 54 32.415   +18 10 50.74  .02768 1.0294 155.8 19.2 3.03  52
2023 09 21 19  00 54 00.484   +17 57 26.57  .02774 1.0295 156.1 19.2 3.13  51
2023 09 21 20  00 53 28.763   +17 44 05.39  .02780 1.0296 156.4 19.2 3.23  51
2023 09 21 21  00 52 57.251   +17 30 47.22  .02786 1.0297 156.7 19.2 3.33  50
2023 09 21 22  00 52 25.948   +17 17 32.09  .02792 1.0297 157.0 19.2 3.44  50
2023 09 21 23  00 51 54.850   +17 04 20.01  .02798 1.0298 157.3 19.2 3.54  50
2023 09 22 00  00 51 23.956   +16 51 11.02  .02804 1.0299 157.5 19.2 3.65  49
2023 09 22 01  00 50 53.266   +16 38 05.11  .02810 1.0300 157.8 19.2 3.76  49